Location: Peebles
(55.6412°N, 3.1714°W)
Time: 16:33:25
(UTC+00:00)

Cosmos 1867 - Visible Passes

Search period start: 21 January 2022 00:00
Search period end: 31 January 2022 00:00
Orbit: 773 x 802 km, 65.0° (Epoch: 21 January)

Date Brightness Start Highest point End Pass type
(mag) Time Alt. Az. Time Alt. Az. Time Alt. Az.
21 Jan 7.0 06:26:56 10° SE 06:29:03 12° ESE 06:31:11 10° E visible
22 Jan 5.1 07:34:47 10° SSW 07:39:54 42° ESE 07:45:03 10° NE visible
23 Jan 5.5 07:03:27 10° S 07:08:19 34° ESE 07:13:13 10° ENE visible
24 Jan 5.9 06:32:15 10° S 06:36:47 27° ESE 06:41:20 10° ENE visible
25 Jan 6.2 06:01:13 10° SSE 06:05:16 22° ESE 06:09:21 10° ENE visible
26 Jan 6.4 05:30:24 10° SSE 05:33:48 17° ESE 05:37:13 10° ENE visible
26 Jan 4.1 07:11:04 10° SSW 07:16:30 68° SE 07:21:58 10° NE visible
27 Jan 6.5 04:59:58 10° SE 05:02:22 13° ESE 05:04:45 10° E visible
27 Jan 4.4 06:39:32 10° SSW 06:44:51 55° SE 06:50:13 10° NE visible
28 Jan 4.8 06:08:04 10° SSW 06:13:15 44° SE 06:18:26 10° NE visible
29 Jan 5.1 05:36:44 10° S 05:41:39 35° ESE 05:46:37 10° ENE visible
29 Jan 3.6 07:19:32 10° WSW 07:25:01 69° NW 07:30:32 10° NE visible
30 Jan 5.4 05:05:31 10° S 05:10:07 28° ESE 05:14:44 10° ENE visible
30 Jan 3.6 06:47:46 10° SW 06:53:16 82° NW 06:58:48 10° NE visible
